Time,TemperatureF,DewpointF,PressureIn,WindDirection,WindDirectionDegrees,WindSpeedMPH,WindSpeedGustMPH,Humidity,HourlyPrecipIn,Conditions,Clouds,dailyrainin,SoftwareType,DateUTC
2013-02-15 00:08:00,11.6,2.0,30.21,West,266,0.0,-999.0,64,-99.99,,,0.00,weatherlink.com 1.10,2013-02-15 06:08:00,
2013-02-15 00:23:00,10.9,1.0,30.21,West,269,1.0,-999.0,64,-99.99,,,0.00,weatherlink.com 1.10,2013-02-15 06:23:00,
2013-02-15 00:38:00,10.0,0.0,30.21,West,268,1.0,-999.0,64,-99.99,,,0.00,weatherlink.com 1.10,2013-02-15 06:38:00,
2013-02-15 00:53:00,9.5,-1.0,30.22,West,262,0.0,-999.0,63,-99.99,,,0.00,weatherlink.com 1.10,2013-02-15 06:53:00,
2013-02-15 01:08:00,9.2,-2.0,30.22,West,274,0.0,-999.0,61,-99.99,,,0.00,weatherlink.com 1.10,2013-02-15 07:08:00,
2013-02-15 01:23:00,9.0,-2.0,30.22,NW,310,0.0,-999.0,60,-99.99,,,0.00,weatherlink.com 1.10,2013-02-15 07:23:00,
2013-02-15 01:38:00,9.0,-3.0,30.22,NW,309,3.0,-999.0,59,-99.99,,,0.00,weatherlink.com 1.10,2013-02-15 07:38:00,
2013-02-15 01:53:00,8.6,-3.0,30.22,WNW,288,1.0,-999.0,60,-99.99,,,0.00,weatherlink.com 1.10,2013-02-15 07:53:00,
2013-02-15 02:08:00,8.3,-3.0,30.22,WNW,294,2.0,-999.0,61,-99.99,,,0.00,weatherlink.com 1.10,2013-02-15 08:08:00,
2013-02-15 02:23:00,8.1,-2.0,30.22,WNW,285,2.0,-999.0,63,-99.99,,,0.00,weatherlink.com 1.10,2013-02-15 08:23:00,
2013-02-15 02:38:00,7.9,-2.0,30.23,West,266,1.0,-999.0,64,-99.99,,,0.00,weatherlink.com 1.10,2013-02-15 08:38:00,
2013-02-15 02:53:00,7.9,-2.0,30.23,West,266,0.0,-999.0,65,-99.99,,,0.00,weatherlink.com 1.10,2013-02-15 08:53:00,
2013-02-15 03:08:00,7.9,-1.0,30.23,West,269,2.0,-999.0,66,-99.99,,,0.00,weatherlink.com 1.10,2013-02-15 09:08:00,
2013-02-15 03:23:00,7.7,-1.0,30.24,West,276,1.0,-999.0,67,-99.99,,,0.00,weatherlink.com 1.10,2013-02-15 09:23:00,
2013-02-15 03:38:00,7.6,-1.0,30.24,West,274,0.0,-999.0,68,-99.99,,,0.00,weatherlink.com 1.10,2013-02-15 09:38:00,
2013-02-15 03:53:00,7.2,-1.0,30.24,WNW,289,2.0,-999.0,69,-99.99,,,0.00,weatherlink.com 1.10,2013-02-15 09:53:00,
2013-02-15 04:08:00,7.2,-1.0,30.25,WNW,287,0.0,-999.0,70,-99.99,,,0.00,weatherlink.com 1.10,2013-02-15 10:08:00,
2013-02-15 04:23:00,7.2,0.0,30.25,WNW,299,3.0,-999.0,71,-99.99,,,0.00,weatherlink.com 1.10,2013-02-15 10:23:00,
2013-02-15 04:38:00,7.2,0.0,30.25,West,276,4.0,-999.0,72,-99.99,,,0.00,weatherlink.com 1.10,2013-02-15 10:38:00,
2013-02-15 04:53:00,7.0,0.0,30.25,WNW,297,0.0,-999.0,72,-99.99,,,0.00,weatherlink.com 1.10,2013-02-15 10:53:00,
2013-02-15 05:08:00,6.7,0.0,30.26,WNW,291,0.0,-999.0,73,-99.99,,,0.00,weatherlink.com 1.10,2013-02-15 11:08:00,
2013-02-15 05:23:00,6.3,-1.0,30.26,WNW,291,0.0,-999.0,73,-99.99,,,0.00,weatherlink.com 1.10,2013-02-15 11:23:00,
2013-02-15 05:38:00,6.1,-1.0,30.27,WNW,284,0.0,-999.0,74,-99.99,,,0.00,weatherlink.com 1.10,2013-02-15 11:38:00,
2013-02-15 05:53:00,5.8,-1.0,30.28,West,266,0.0,-999.0,74,-99.99,,,0.00,weatherlink.com 1.10,2013-02-15 11:53:00,
2013-02-15 06:08:00,5.2,-1.0,30.28,West,266,2.0,-999.0,75,-99.99,,,0.00,weatherlink.com 1.10,2013-02-15 12:08:00,
2013-02-15 06:23:00,5.0,-1.0,30.29,West,266,1.0,-999.0,75,-99.99,,,0.00,weatherlink.com 1.10,2013-02-15 12:23:00,
2013-02-15 06:38:00,4.7,-2.0,30.29,West,266,0.0,-999.0,75,-99.99,,,0.00,weatherlink.com 1.10,2013-02-15 12:38:00,
2013-02-15 06:53:00,4.5,-2.0,30.29,West,266,0.0,-999.0,76,-99.99,,,0.00,weatherlink.com 1.10,2013-02-15 12:53:00,
2013-02-15 07:08:00,4.5,-1.0,30.30,West,271,0.0,-999.0,77,-99.99,,,0.00,weatherlink.com 1.10,2013-02-15 13:08:00,
2013-02-15 07:23:00,4.3,-2.0,30.30,West,271,0.0,-999.0,76,-99.99,,,0.00,weatherlink.com 1.10,2013-02-15 13:23:00,
2013-02-15 07:38:00,4.5,-1.0,30.31,West,271,1.0,-999.0,77,-99.99,,,0.00,weatherlink.com 1.10,2013-02-15 13:38:00,
2013-02-15 07:53:00,5.4,0.0,30.31,WNW,302,3.0,-999.0,77,-99.99,,,0.00,weatherlink.com 1.10,2013-02-15 13:53:00,
2013-02-15 08:08:00,6.1,0.0,30.32,West,281,2.0,-999.0,75,-99.99,,,0.00,weatherlink.com 1.10,2013-02-15 14:08:00,
2013-02-15 08:23:00,6.3,0.0,30.33,NNW,339,2.0,-999.0,74,-99.99,,,0.00,weatherlink.com 1.10,2013-02-15 14:23:00,
2013-02-15 08:38:00,7.0,0.0,30.33,NNW,339,2.0,-999.0,73,-99.99,,,0.00,weatherlink.com 1.10,2013-02-15 14:38:00,
2013-02-15 08:53:00,7.7,0.0,30.34,North,358,5.0,-999.0,71,-99.99,,,0.00,weatherlink.com 1.10,2013-02-15 14:53:00,
2013-02-15 09:08:00,8.1,0.0,30.34,North,1,2.0,-999.0,69,-99.99,,,0.00,weatherlink.com 1.10,2013-02-15 15:08:00,
2013-02-15 09:23:00,8.4,0.0,30.35,North,349,2.0,-999.0,68,-99.99,,,0.00,weatherlink.com 1.10,2013-02-15 15:23:00,
2013-02-15 09:38:00,9.3,0.0,30.34,NNW,347,6.0,-999.0,67,-99.99,,,0.00,weatherlink.com 1.10,2013-02-15 15:38:00,
2013-02-15 09:53:00,9.9,0.0,30.34,NNE,13,3.0,-999.0,65,-99.99,,,0.00,weatherlink.com 1.10,2013-02-15 15:53:00,
2013-02-15 10:08:00,10.4,0.0,30.34,North,350,2.0,-999.0,64,-99.99,,,0.00,weatherlink.com 1.10,2013-02-15 16:08:00,
2013-02-15 10:23:00,11.1,1.0,30.34,NNW,347,3.0,-999.0,63,-99.99,,,0.00,weatherlink.com 1.10,2013-02-15 16:23:00,
2013-02-15 10:38:00,11.4,1.0,30.34,North,358,4.0,-999.0,62,-99.99,,,0.00,weatherlink.com 1.10,2013-02-15 16:38:00,
2013-02-15 10:53:00,12.1,1.0,30.34,North,8,3.0,-999.0,60,-99.99,,,0.00,weatherlink.com 1.10,2013-02-15 16:53:00,
2013-02-15 11:08:00,12.4,1.0,30.34,NNW,338,5.0,-999.0,60,-99.99,,,0.00,weatherlink.com 1.10,2013-02-15 17:08:00,
2013-02-15 11:23:00,13.3,2.0,30.35,North,355,4.0,-999.0,60,-99.99,,,0.00,weatherlink.com 1.10,2013-02-15 17:23:00,
2013-02-15 11:38:00,13.5,2.0,30.35,North,0,3.0,-999.0,59,-99.99,,,0.00,weatherlink.com 1.10,2013-02-15 17:38:00,
2013-02-15 11:53:00,14.1,2.0,30.35,North,349,9.0,-999.0,59,-99.99,,,0.00,weatherlink.com 1.10,2013-02-15 17:53:00,
2013-02-15 12:08:00,14.0,1.0,30.34,North,0,6.0,-999.0,57,-99.99,,,0.00,weatherlink.com 1.10,2013-02-15 18:08:00,
2013-02-15 12:22:00,14.8,2.0,30.34,North,358,5.0,-999.0,56,-99.99,,,0.00,weatherlink.com 1.10,2013-02-15 18:22:00,
2013-02-15 12:38:00,15.1,2.0,30.34,NNW,334,3.0,-999.0,55,-99.99,,,0.00,weatherlink.com 1.10,2013-02-15 18:38:00,
2013-02-15 12:53:00,15.9,2.0,30.33,North,0,7.0,-999.0,54,-99.99,,,0.00,weatherlink.com 1.10,2013-02-15 18:53:00,
2013-02-15 13:08:00,15.9,1.0,30.33,NW,321,9.0,-999.0,53,-99.99,,,0.00,weatherlink.com 1.10,2013-02-15 19:08:00,
2013-02-15 13:23:00,15.9,1.0,30.33,NW,326,5.0,-999.0,53,-99.99,,,0.00,weatherlink.com 1.10,2013-02-15 19:23:00,
2013-02-15 13:38:00,16.5,2.0,30.33,NW,309,5.0,-999.0,53,-99.99,,,0.00,weatherlink.com 1.10,2013-02-15 19:38:00,
2013-02-15 13:53:00,16.4,2.0,30.33,NNW,330,2.0,-999.0,53,-99.99,,,0.00,weatherlink.com 1.10,2013-02-15 19:53:00,
2013-02-15 14:08:00,16.7,2.0,30.33,NNW,328,5.0,-999.0,53,-99.99,,,0.00,weatherlink.com 1.10,2013-02-15 20:08:00,
2013-02-15 14:23:00,16.7,2.0,30.33,NW,314,5.0,-999.0,53,-99.99,,,0.00,weatherlink.com 1.10,2013-02-15 20:23:00,
2013-02-15 14:38:00,16.7,2.0,30.33,North,358,1.0,-999.0,52,-99.99,,,0.00,weatherlink.com 1.10,2013-02-15 20:38:00,
2013-02-15 14:53:00,16.4,2.0,30.33,NW,326,5.0,-999.0,54,-99.99,,,0.00,weatherlink.com 1.10,2013-02-15 20:53:00,
2013-02-15 15:07:00,16.4,2.0,30.33,WNW,285,3.0,-999.0,54,-99.99,,,0.00,weatherlink.com 1.10,2013-02-15 21:07:00,
2013-02-15 15:22:00,16.2,3.0,30.33,WNW,283,3.0,-999.0,55,-99.99,,,0.00,weatherlink.com 1.10,2013-02-15 21:22:00,
2013-02-15 15:37:00,16.4,2.0,30.33,NW,304,0.0,-999.0,54,-99.99,,,0.00,weatherlink.com 1.10,2013-02-15 21:37:00,
2013-02-15 15:52:00,16.1,2.0,30.33,WNW,284,2.0,-999.0,55,-99.99,,,0.00,weatherlink.com 1.10,2013-02-15 21:52:00,
2013-02-15 16:07:00,15.6,2.0,30.34,WNW,300,3.0,-999.0,55,-99.99,,,0.00,weatherlink.com 1.10,2013-02-15 22:07:00,
2013-02-15 16:22:00,15.6,2.0,30.34,NW,324,4.0,-999.0,54,-99.99,,,0.00,weatherlink.com 1.10,2013-02-15 22:22:00,
2013-02-15 16:37:00,15.6,2.0,30.34,NW,314,1.0,-999.0,54,-99.99,,,0.00,weatherlink.com 1.10,2013-02-15 22:37:00,
2013-02-15 16:52:00,15.6,2.0,30.34,WNW,302,3.0,-999.0,54,-99.99,,,0.00,weatherlink.com 1.10,2013-02-15 22:52:00,
2013-02-15 17:07:00,15.2,1.0,30.34,West,279,4.0,-999.0,54,-99.99,,,0.00,weatherlink.com 1.10,2013-02-15 23:07:00,
2013-02-15 17:22:00,14.8,1.0,30.35,West,275,4.0,-999.0,55,-99.99,,,0.00,weatherlink.com 1.10,2013-02-15 23:22:00,
2013-02-15 17:37:00,14.0,1.0,30.35,West,274,1.0,-999.0,56,-99.99,,,0.00,weatherlink.com 1.10,2013-02-15 23:37:00,
2013-02-15 18:07:00,12.8,1.0,30.34,WNW,293,1.0,-999.0,59,-99.99,,,0.00,weatherlink.com 1.10,2013-02-16 00:07:00,
2013-02-15 18:22:00,12.3,1.0,30.34,West,275,1.0,-999.0,60,-99.99,,,0.00,weatherlink.com 1.10,2013-02-16 00:22:00,
2013-02-15 18:37:00,11.7,1.0,30.34,West,266,0.0,-999.0,61,-99.99,,,0.00,weatherlink.com 1.10,2013-02-16 00:37:00,
2013-02-15 18:52:00,11.4,1.0,30.34,West,266,3.0,-999.0,62,-99.99,,,0.00,weatherlink.com 1.10,2013-02-16 00:52:00,
2013-02-15 19:07:00,10.7,1.0,30.34,West,280,1.0,-999.0,64,-99.99,,,0.00,weatherlink.com 1.10,2013-02-16 01:07:00,
2013-02-15 19:22:00,10.0,1.0,30.34,WSW,253,1.0,-999.0,68,-99.99,,,0.00,weatherlink.com 1.10,2013-02-16 01:22:00,
2013-02-15 19:37:00,9.7,2.0,30.34,WSW,258,2.0,-999.0,71,-99.99,,,0.00,weatherlink.com 1.10,2013-02-16 01:37:00,
2013-02-15 19:52:00,9.0,2.0,30.34,West,262,2.0,-999.0,72,-99.99,,,0.00,weatherlink.com 1.10,2013-02-16 01:52:00,
2013-02-15 20:07:00,8.4,1.0,30.34,West,267,3.0,-999.0,72,-99.99,,,0.00,weatherlink.com 1.10,2013-02-16 02:07:00,
2013-02-15 20:22:00,7.9,1.0,30.33,WSW,256,2.0,-999.0,73,-99.99,,,0.00,weatherlink.com 1.10,2013-02-16 02:22:00,
2013-02-15 20:37:00,7.6,1.0,30.33,WSW,254,2.0,-999.0,73,-99.99,,,0.00,weatherlink.com 1.10,2013-02-16 02:37:00,
2013-02-15 20:52:00,7.0,0.0,30.34,WSW,255,2.0,-999.0,73,-99.99,,,0.00,weatherlink.com 1.10,2013-02-16 02:52:00,
2013-02-15 21:07:00,6.5,0.0,30.33,WSW,255,2.0,-999.0,73,-99.99,,,0.00,weatherlink.com 1.10,2013-02-16 03:07:00,
2013-02-15 21:22:00,6.5,0.0,30.33,WSW,258,2.0,-999.0,73,-99.99,,,0.00,weatherlink.com 1.10,2013-02-16 03:22:00,
2013-02-15 21:37:00,6.7,-1.0,30.33,West,260,1.0,-999.0,71,-99.99,,,0.00,weatherlink.com 1.10,2013-02-16 03:37:00,
2013-02-15 21:52:00,6.7,-1.0,30.33,WNW,301,0.0,-999.0,71,-99.99,,,0.00,weatherlink.com 1.10,2013-02-16 03:52:00,
2013-02-15 22:07:00,6.3,-1.0,30.32,West,269,3.0,-999.0,71,-99.99,,,0.00,weatherlink.com 1.10,2013-02-16 04:07:00,
2013-02-15 22:22:00,6.0,-2.0,30.32,WNW,294,2.0,-999.0,71,-99.99,,,0.00,weatherlink.com 1.10,2013-02-16 04:22:00,
2013-02-15 22:37:00,5.6,-2.0,30.32,WSW,248,0.0,-999.0,72,-99.99,,,0.00,weatherlink.com 1.10,2013-02-16 04:37:00,
2013-02-15 22:52:00,5.4,-2.0,30.32,WNW,290,1.0,-999.0,73,-99.99,,,0.00,weatherlink.com 1.10,2013-02-16 04:52:00,
2013-02-15 23:07:00,5.0,-2.0,30.32,North,354,1.0,-999.0,73,-99.99,,,0.00,weatherlink.com 1.10,2013-02-16 05:07:00,
2013-02-15 23:37:00,4.5,-2.0,30.31,West,267,2.0,-999.0,74,-99.99,,,0.00,weatherlink.com 1.10,2013-02-16 05:37:00,
2013-02-15 23:52:00,4.1,-3.0,30.31,West,261,0.0,-999.0,74,-99.99,,,0.00,weatherlink.com 1.10,2013-02-16 05:52:00,